This is the latest recevied weather packets stored in our database for station/object SP6KBU-12. If no packets are shown the sender has not sent any weather packets the latest 10 day(s).
| Time | Temp. | Humidity | Pressure | Rain* | Wind** | Luminosity | Snow |
|---|---|---|---|---|---|---|---|
| 1777449045 | 7.78° C | 40% | 1029.3 hPa | - | - | - | - |
| 1777448145 | 6.67° C | 39% | 1029.3 hPa | - | - | - | - |
| 1777447245 | 6.67° C | 40% | 1029.1 hPa | - | - | - | - |
| 1777446345 | 6.11° C | 42% | 1029.1 hPa | - | - | - | - |
| 1777445445 | 5.56° C | 43% | 1028.9 hPa | - | - | - | - |
| 1777444545 | 5° C | 46% | 1028.7 hPa | - | - | - | - |
| 1777443645 | 4.44° C | 48% | 1028.6 hPa | - | - | - | - |
| 1777442744 | 3.89° C | 50% | 1028.4 hPa | - | - | - | - |
| 1777441844 | 3.33° C | 51% | 1028.4 hPa | - | - | - | - |
| 1777440943 | 2.78° C | 52% | 1028.1 hPa | - | - | - | - |
| 1777440044 | 1.67° C | 53% | 1028 hPa | - | - | - | - |
| 1777439144 | 1.11° C | 54% | 1027.8 hPa | - | - | - | - |
| 1777438244 | 0.56° C | 55% | 1027.7 hPa | - | - | - | - |
| 1777437344 | 0.56° C | 54% | 1027.7 hPa | - | - | - | - |
| 1777436444 | 0.56° C | 54% | 1027.6 hPa | - | - | - | - |
| 1777435544 | 0° C | 53% | 1027.4 hPa | - | - | - | - |
| 1777434644 | 0° C | 53% | 1027.2 hPa | - | - | - | - |
| 1777433744 | 0° C | 53% | 1027.1 hPa | - | - | - | - |
| 1777432844 | 0° C | 52% | 1027 hPa | - | - | - | - |
| 1777431944 | 0° C | 50% | 1026.9 hPa | - | - | - | - |
| 1777431044 | 0.56° C | 48% | 1026.9 hPa | - | - | - | - |
| 1777430144 | 0.56° C | 46% | 1026.9 hPa | - | - | - | - |
| 1777429244 | 1.11° C | 47% | 1026.9 hPa | - | - | - | - |
| 1777428344 | 0.56° C | 48% | 1026.7 hPa | - | - | - | - |
| 1777427444 | 1.11° C | 47% | 1026.7 hPa | - | - | - | - |
* Rain since midnight (hover to see other rain measurements)
** Current wind speed in m/s (hover to see current wind gust speed)